Location: Reutlingen
(48.4911°N, 9.2587°E)
Time: 13:24:40
(UTC+01:00)

ISS - Pass Details

Date: 05 January 2018
Orbit: 402 x 407 km, 51.6° (Epoch: 22 January)

Event Time Altitude Azimuth Distance (km) Brightness Sun altitude
Exits shadow 06:03:26 45° 27° (NNE) 564 -3.1 -20.7°
Drops below altitude 10° 06:06:09 10° 69° (ENE) 1,472 -0.2 -20.3°
Sets 06:08:16 0° 74° (ENE) 2,334 1.1 -20.0°
